| time (UTC) | temp F | wind direction | speed knots | gust knots | rain 1hr in | rain 24hr in | rain mn in | humidity % | barometer mb |
| 20260504151101 | 77 | 0 | 0.0 | 0.9 | 0.00 | 0.00 | 0.00 | 38 | 1018.6 |
| 20260504150557 | 77 | 0 | 0.0 | 0.9 | 0.00 | 0.00 | 0.00 | 38 | 1018.5 |
| 20260504141059 | 73 | 0 | 0.0 | 0.0 | 0.00 | 0.00 | 0.00 | 52 | 1018.5 |
| 20260504140557 | 72 | 0 | 0.0 | 1.7 | 0.00 | 0.00 | 0.00 | 51 | 1018.7 |
| 20260504130557 | 63 | 0 | 0.0 | 0.9 | 0.00 | 0.00 | 0.00 | 60 | 1018.6 |
| 20260504110559 | 54 | 0 | 0.0 | 0.0 | 0.00 | 0.00 | 0.00 | 62 | 1017.8 |
| 20260504110105 | 54 | 0 | 0.0 | 0.0 | 0.00 | 0.00 | 0.00 | 62 | 1017.9 |
| 20260504100556 | 55 | 0 | 0.0 | 0.0 | 0.00 | 0.00 | 0.00 | 62 | 1018.2 |
| 20260504081558 | 57 | 0 | 0.0 | 0.0 | 0.00 | 0.00 | 0.00 | 62 | 1017.9 |
| 20260504081058 | 57 | 0 | 0.0 | 0.0 | 0.00 | 0.00 | 0.00 | 61 | 1018.0 |
| 20260504080558 | 57 | 0 | 0.0 | 0.0 | 0.00 | 0.00 | 0.00 | 61 | 1017.9 |
| 20260504050558 | 60 | 0 | 0.0 | 0.0 | 0.00 | 0.00 | 0.00 | 58 | 1019.4 |
| 20260504045559 | 60 | 0 | 0.0 | 0.0 | 0.00 | 0.00 | 0.00 | 58 | 1019.5 |
| 20260504045059 | 60 | 0 | 0.0 | 0.0 | 0.00 | 0.00 | 0.00 | 58 | 1019.6 |
| 20260504044557 | 60 | 0 | 0.0 | 0.0 | 0.00 | 0.00 | 0.00 | 58 | 1019.6 |
| 20260504044059 | 60 | 0 | 0.0 | 0.0 | 0.00 | 0.00 | 0.00 | 58 | 1019.5 |
| 20260504043559 | 60 | 0 | 0.0 | 0.0 | 0.00 | 0.00 | 0.00 | 58 | 1019.7 |
| 20260504043104 | 60 | 0 | 0.0 | 0.0 | 0.00 | 0.00 | 0.00 | 58 | 1019.7 |
| 20260504042558 | 60 | 0 | 0.0 | 0.0 | 0.00 | 0.00 | 0.00 | 58 | 1019.7 |
| 20260504042056 | 60 | 0 | 0.0 | 0.0 | 0.00 | 0.00 | 0.00 | 58 | 1019.7 |
| 20260504041557 | 60 | 0 | 0.0 | 0.0 | 0.00 | 0.00 | 0.00 | 58 | 1019.6 |
| 20260504041058 | 61 | 0 | 0.0 | 0.0 | 0.00 | 0.00 | 0.00 | 58 | 1019.6 |
| 20260504040558 | 61 | 0 | 0.0 | 0.0 | 0.00 | 0.00 | 0.00 | 58 | 1019.6 |
| 20260504040131 | 61 | 0 | 0.0 | 0.0 | 0.00 | 0.00 | 0.00 | 57 | 1019.5 |
| 20260504035558 | 61 | 0 | 0.0 | 0.0 | 0.00 | 0.00 | 0.00 | 57 | 1019.6 |
| 20260504035100 | 61 | 0 | 0.0 | 0.0 | 0.00 | 0.00 | 0.00 | 57 | 1019.5 |
| 20260504034602 | 61 | 0 | 0.0 | 0.0 | 0.00 | 0.00 | 0.00 | 57 | 1019.5 |
| 20260504034058 | 61 | 0 | 0.0 | 0.0 | 0.00 | 0.00 | 0.00 | 57 | 1019.6 |
| 20260504033558 | 62 | 0 | 0.0 | 0.0 | 0.00 | 0.00 | 0.00 | 57 | 1019.6 |
| 20260504033056 | 62 | 0 | 0.0 | 0.0 | 0.00 | 0.00 | 0.00 | 56 | 1019.6 |
| 20260504032558 | 62 | 0 | 0.0 | 0.0 | 0.00 | 0.00 | 0.00 | 55 | 1019.5 |
| 20260504032102 | 62 | 0 | 0.0 | 0.0 | 0.00 | 0.00 | 0.00 | 55 | 1019.6 |
| 20260504031614 | 62 | 0 | 0.0 | 0.0 | 0.00 | 0.00 | 0.00 | 55 | 1019.6 |
| 20260504031057 | 62 | 0 | 0.0 | 0.0 | 0.00 | 0.00 | 0.00 | 55 | 1019.6 |
| 20260504030557 | 62 | 0 | 0.0 | 0.0 | 0.00 | 0.00 | 0.00 | 55 | 1019.6 |
| 20260504030057 | 63 | 0 | 0.0 | 0.0 | 0.00 | 0.00 | 0.00 | 55 | 1019.5 |
| 20260504025600 | 63 | 0 | 0.0 | 0.9 | 0.00 | 0.00 | 0.00 | 55 | 1019.4 |
| 20260504025059 | 63 | 0 | 0.0 | 0.9 | 0.00 | 0.00 | 0.00 | 54 | 1019.4 |
| 20260504024605 | 63 | 0 | 0.0 | 0.9 | 0.00 | 0.00 | 0.00 | 54 | 1019.3 |
| 20260504024058 | 64 | 0 | 0.0 | 0.0 | 0.00 | 0.00 | 0.00 | 53 | 1019.4 |
| 20260504023558 | 64 | 0 | 0.0 | 0.0 | 0.00 | 0.00 | 0.00 | 53 | 1019.3 |
| 20260504023056 | 64 | 0 | 0.0 | 0.0 | 0.00 | 0.00 | 0.00 | 52 | 1019.3 |
| 20260504022558 | 64 | 0 | 0.0 | 0.0 | 0.00 | 0.00 | 0.00 | 52 | 1019.3 |
| 20260504022058 | 64 | 0 | 0.0 | 0.0 | 0.00 | 0.00 | 0.00 | 51 | 1019.3 |
| 20260504021558 | 65 | 0 | 0.0 | 0.0 | 0.00 | 0.00 | 0.00 | 51 | 1019.2 |
| 20260504021058 | 65 | 0 | 0.0 | 0.0 | 0.00 | 0.00 | 0.00 | 51 | 1019.1 |
| 20260504020600 | 65 | 0 | 0.0 | 0.0 | 0.00 | 0.00 | 0.00 | 50 | 1018.9 |
| 20260504020112 | 65 | 0 | 0.0 | 0.0 | 0.00 | 0.00 | 0.00 | 49 | 1018.9 |
| 20260504015559 | 66 | 0 | 0.0 | 0.0 | 0.00 | 0.00 | 0.00 | 49 | 1018.9 |
| 20260504015058 | 66 | 0 | 0.0 | 0.0 | 0.00 | 0.00 | 0.00 | 48 | 1018.9 |
| 20260504014603 | 66 | 0 | 0.0 | 0.0 | 0.00 | 0.00 | 0.00 | 47 | 1018.9 |
| 20260504014058 | 67 | 0 | 0.0 | 0.0 | 0.00 | 0.00 | 0.00 | 47 | 1018.9 |
| 20260504013558 | 67 | 0 | 0.0 | 0.0 | 0.00 | 0.00 | 0.00 | 46 | 1018.8 |
| 20260504013100 | 67 | 0 | 0.0 | 0.0 | 0.00 | 0.00 | 0.00 | 45 | 1018.7 |
| 20260504012601 | 68 | 0 | 0.0 | 0.0 | 0.00 | 0.00 | 0.00 | 45 | 1018.7 |
| 20260504012059 | 68 | 0 | 0.0 | 0.0 | 0.00 | 0.00 | 0.00 | 45 | 1018.7 |
| 20260504011600 | 68 | 0 | 0.0 | 0.9 | 0.00 | 0.00 | 0.00 | 44 | 1018.6 |
| 20260504011059 | 69 | 0 | 0.0 | 0.9 | 0.00 | 0.00 | 0.00 | 43 | 1018.6 |
| 20260504010558 | 69 | 0 | 0.0 | 0.9 | 0.00 | 0.00 | 0.00 | 43 | 1018.5 |
| 20260504010058 | 69 | 0 | 0.0 | 0.0 | 0.00 | 0.00 | 0.00 | 42 | 1018.6 |
| 20260504005558 | 70 | 0 | 0.0 | 0.0 | 0.00 | 0.00 | 0.00 | 41 | 1018.6 |
| 20260504005058 | 70 | 0 | 0.0 | 0.0 | 0.00 | 0.00 | 0.00 | 40 | 1018.5 |
| 20260504004558 | 71 | 0 | 0.0 | 0.0 | 0.00 | 0.00 | 0.00 | 39 | 1018.4 |
| 20260504004058 | 71 | 0 | 0.0 | 0.0 | 0.00 | 0.00 | 0.00 | 38 | 1018.4 |
| 20260504003558 | 71 | 0 | 0.0 | 0.0 | 0.00 | 0.00 | 0.00 | 37 | 1018.4 |
| 20260504003057 | 71 | 0 | 0.0 | 0.0 | 0.00 | 0.00 | 0.00 | 37 | 1018.3 |
| 20260504002558 | 72 | 0 | 0.0 | 0.0 | 0.00 | 0.00 | 0.00 | 36 | 1018.4 |
| 20260504002058 | 72 | 0 | 0.0 | 0.0 | 0.00 | 0.00 | 0.00 | 35 | 1018.3 |
| 20260504001603 | 72 | 0 | 0.0 | 0.0 | 0.00 | 0.00 | 0.00 | 35 | 1018.4 |
| 20260504001100 | 72 | 0 | 0.0 | 0.0 | 0.00 | 0.00 | 0.00 | 35 | 1018.4 |
| 20260504000557 | 72 | 0 | 0.0 | 0.0 | 0.00 | 0.00 | 0.00 | 35 | 1018.3 |
| 20260504000101 | 72 | 0 | 0.0 | 0.9 | 0.00 | 0.00 | 0.00 | 35 | 1018.3 |
| 20260503235558 | 72 | 0 | 0.0 | 2.6 | 0.00 | 0.00 | 0.00 | 35 | 1018.3 |
| 20260503235102 | 73 | 0 | 0.0 | 2.6 | 0.00 | 0.00 | 0.00 | 34 | 1018.3 |
| 20260503234624 | 73 | 0 | 0.0 | 2.6 | 0.00 | 0.00 | 0.00 | 34 | 1018.4 |
| 20260503234103 | 73 | 0 | 0.0 | 2.6 | 0.00 | 0.00 | 0.00 | 33 | 1018.4 |
| 20260503233558 | 74 | 0 | 0.0 | 0.9 | 0.00 | 0.00 | 0.00 | 33 | 1018.4 |
| 20260503233059 | 74 | 0 | 0.0 | 1.7 | 0.00 | 0.00 | 0.00 | 32 | 1018.5 |
| 20260503232558 | 74 | 0 | 0.0 | 7.8 | 0.00 | 0.00 | 0.00 | 30 | 1018.6 |
| 20260503232058 | 75 | 0 | 0.9 | 7.8 | 0.00 | 0.00 | 0.00 | 31 | 1018.6 |
| 20260503231557 | 74 | 0 | 0.0 | 0.9 | 0.00 | 0.00 | 0.00 | 32 | 1018.5 |
| 20260503231058 | 75 | 0 | 0.0 | 1.7 | 0.00 | 0.00 | 0.00 | 33 | 1018.5 |
| 20260503230600 | 75 | 0 | 0.0 | 1.7 | 0.00 | 0.00 | 0.00 | 32 | 1018.4 |
| 20260503230058 | 75 | 0 | 0.0 | 1.7 | 0.00 | 0.00 | 0.00 | 32 | 1018.5 |
| 20260503225557 | 75 | 0 | 0.0 | 3.5 | 0.00 | 0.00 | 0.00 | 31 | 1018.6 |
| 20260503225058 | 76 | 0 | 0.0 | 5.2 | 0.00 | 0.00 | 0.00 | 30 | 1018.6 |
| 20260503224557 | 76 | 0 | 0.0 | 5.2 | 0.00 | 0.00 | 0.00 | 30 | 1018.6 |
| 20260503224058 | 76 | 0 | 0.0 | 5.2 | 0.00 | 0.00 | 0.00 | 29 | 1018.7 |
| 20260503223559 | 76 | 0 | 0.0 | 5.2 | 0.00 | 0.00 | 0.00 | 28 | 1018.7 |
| 20260503223059 | 77 | 0 | 0.0 | 3.5 | 0.00 | 0.00 | 0.00 | 28 | 1018.6 |
| 20260503222558 | 77 | 0 | 0.0 | 6.1 | 0.00 | 0.00 | 0.00 | 28 | 1018.7 |
| 20260503222058 | 77 | 0 | 0.9 | 6.1 | 0.00 | 0.00 | 0.00 | 27 | 1018.7 |
| 20260503221606 | 77 | 0 | 0.0 | 5.2 | 0.00 | 0.00 | 0.00 | 26 | 1018.8 |
| 20260503221058 | 78 | 0 | 0.9 | 5.2 | 0.00 | 0.00 | 0.00 | 26 | 1018.9 |
| 20260503220558 | 78 | 0 | 0.0 | 3.5 | 0.00 | 0.00 | 0.00 | 26 | 1018.9 |
| 20260503220056 | 78 | 267 | 0.0 | 3.5 | 0.00 | 0.00 | 0.00 | 26 | 1018.9 |
| 20260503215557 | 78 | 273 | 0.0 | 3.5 | 0.00 | 0.00 | 0.00 | 27 | 1018.9 |
| 20260503215058 | 77 | 0 | 0.0 | 4.3 | 0.00 | 0.00 | 0.00 | 28 | 1019.1 |
| 20260503214556 | 78 | 263 | 0.9 | 5.2 | 0.00 | 0.00 | 0.00 | 27 | 1019.1 |
| 20260503214058 | 77 | 278 | 0.0 | 5.2 | 0.00 | 0.00 | 0.00 | 27 | 1019.1 |
| 20260503213558 | 77 | 0 | 0.0 | 4.3 | 0.00 | 0.00 | 0.00 | 27 | 1019.1 |
| 20260503213055 | 77 | 0 | 0.0 | 3.5 | 0.00 | 0.00 | 0.00 | 27 | 1019.2 |
| 20260503212558 | 77 | 0 | 0.0 | 3.5 | 0.00 | 0.00 | 0.00 | 25 | 1019.3 |
| 20260503212058 | 77 | 234 | 0.0 | 3.5 | 0.00 | 0.00 | 0.00 | 27 | 1019.4 |
| 20260503211559 | 77 | 0 | 0.0 | 3.5 | 0.00 | 0.00 | 0.00 | 28 | 1019.4 |
| 20260503211057 | 78 | 275 | 0.0 | 8.7 | 0.00 | 0.00 | 0.00 | 26 | 1019.4 |
| 20260503210558 | 78 | 275 | 1.7 | 8.7 | 0.00 | 0.00 | 0.00 | 26 | 1019.5 |
| 20260503210055 | 78 | 0 | 0.0 | 3.5 | 0.00 | 0.00 | 0.00 | 27 | 1019.6 |
| 20260503205600 | 79 | 258 | 0.0 | 3.5 | 0.00 | 0.00 | 0.00 | 27 | 1019.7 |
| 20260503205058 | 79 | 0 | 0.0 | 3.5 | 0.00 | 0.00 | 0.00 | 28 | 1019.7 |
| 20260503204601 | 78 | 0 | 0.0 | 3.5 | 0.00 | 0.00 | 0.00 | 27 | 1019.7 |
| 20260503204058 | 78 | 0 | 0.0 | 5.2 | 0.00 | 0.00 | 0.00 | 29 | 1019.8 |
| 20260503203558 | 78 | 0 | 0.0 | 6.1 | 0.00 | 0.00 | 0.00 | 27 | 1019.8 |
| 20260503203059 | 78 | 0 | 1.7 | 7.0 | 0.00 | 0.00 | 0.00 | 27 | 1019.9 |
| 20260503202558 | 78 | 271 | 0.0 | 7.8 | 0.00 | 0.00 | 0.00 | 27 | 1020.0 |
| 20260503202058 | 78 | 0 | 0.9 | 7.8 | 0.00 | 0.00 | 0.00 | 28 | 1020.0 |
| 20260503201558 | 78 | 0 | 0.0 | 6.1 | 0.00 | 0.00 | 0.00 | 28 | 1020.1 |
| 20260503201059 | 78 | 261 | 0.0 | 6.1 | 0.00 | 0.00 | 0.00 | 26 | 1020.2 |
| 20260503200558 | 78 | 182 | 0.0 | 6.1 | 0.00 | 0.00 | 0.00 | 29 | 1020.2 |
| 20260503200058 | 77 | 195 | 0.0 | 6.1 | 0.00 | 0.00 | 0.00 | 28 | 1020.4 |
| 20260503195600 | 78 | 0 | 0.0 | 7.0 | 0.00 | 0.00 | 0.00 | 26 | 1020.4 |
| 20260503195057 | 78 | 173 | 0.9 | 7.0 | 0.00 | 0.00 | 0.00 | 27 | 1020.5 |
| 20260503194600 | 78 | 0 | 0.0 | 5.2 | 0.00 | 0.00 | 0.00 | 27 | 1020.5 |
| 20260503194058 | 78 | 0 | 0.0 | 3.5 | 0.00 | 0.00 | 0.00 | 27 | 1020.7 |
| 20260503193558 | 78 | 301 | 0.0 | 3.5 | 0.00 | 0.00 | 0.00 | 28 | 1020.8 |
| 20260503193057 | 78 | 275 | 0.9 | 3.5 | 0.00 | 0.00 | 0.00 | 26 | 1020.8 |
| 20260503192558 | 79 | 0 | 0.0 | 3.5 | 0.00 | 0.00 | 0.00 | 26 | 1020.7 |
| 20260503192057 | 79 | 0 | 0.0 | 3.5 | 0.00 | 0.00 | 0.00 | 27 | 1020.9 |
| 20260503191556 | 78 | 259 | 0.0 | 6.1 | 0.00 | 0.00 | 0.00 | 25 | 1020.9 |
| 20260503191100 | 78 | 0 | 0.0 | 6.1 | 0.00 | 0.00 | 0.00 | 26 | 1021.1 |
| 20260503190559 | 78 | 122 | 0.0 | 6.1 | 0.00 | 0.00 | 0.00 | 21 | 1021.1 |
| 20260503190101 | 77 | 49 | 0.0 | 3.5 | 0.00 | 0.00 | 0.00 | 20 | 1021.1 |
| 20260503185558 | 78 | 0 | 0.0 | 2.6 | 0.00 | 0.00 | 0.00 | 21 | 1021.2 |
| 20260503185101 | 78 | 261 | 0.0 | 3.5 | 0.00 | 0.00 | 0.00 | 23 | 1021.3 |
| 20260503184559 | 77 | 0 | 0.0 | 3.5 | 0.00 | 0.00 | 0.00 | 26 | 1021.4 |
| 20260503184058 | 77 | 261 | 0.9 | 3.5 | 0.00 | 0.00 | 0.00 | 22 | 1021.5 |
| 20260503183558 | 77 | 0 | 0.0 | 3.5 | 0.00 | 0.00 | 0.00 | 23 | 1021.5 |
| 20260503183057 | 77 | 360 | 0.0 | 3.5 | 0.00 | 0.00 | 0.00 | 25 | 1021.5 |
| 20260503182557 | 77 | 0 | 0.0 | 2.6 | 0.00 | 0.00 | 0.00 | 24 | 1021.5 |
| 20260503182058 | 77 | 0 | 0.0 | 2.6 | 0.00 | 0.00 | 0.00 | 24 | 1021.4 |
| 20260503181558 | 76 | 109 | 0.0 | 4.3 | 0.00 | 0.00 | 0.00 | 23 | 1021.5 |
| 20260503181058 | 76 | 282 | 0.0 | 6.1 | 0.00 | 0.00 | 0.00 | 25 | 1021.5 |
| 20260503180558 | 76 | 0 | 1.7 | 6.1 | 0.00 | 0.00 | 0.00 | 24 | 1021.6 |
| 20260503180105 | 76 | 0 | 0.0 | 4.3 | 0.00 | 0.00 | 0.00 | 25 | 1021.6 |
| 20260503175558 | 76 | 0 | 0.0 | 4.3 | 0.00 | 0.00 | 0.00 | 24 | 1021.7 |
| 20260503175058 | 76 | 18 | 0.0 | 3.5 | 0.00 | 0.00 | 0.00 | 23 | 1021.7 |
| 20260503174601 | 76 | 0 | 0.0 | 3.5 | 0.00 | 0.00 | 0.00 | 25 | 1021.9 |
| 20260503174058 | 75 | 0 | 0.0 | 2.6 | 0.00 | 0.00 | 0.00 | 27 | 1022.0 |
| 20260503173558 | 76 | 0 | 0.0 | 3.5 | 0.00 | 0.00 | 0.00 | 24 | 1022.0 |
| 20260503173109 | 76 | 0 | 0.9 | 3.5 | 0.00 | 0.00 | 0.00 | 27 | 1022.1 |
| 20260503172600 | 76 | 0 | 0.0 | 7.0 | 0.00 | 0.00 | 0.00 | 28 | 1022.2 |
| 20260503172058 | 75 | 0 | 0.9 | 7.0 | 0.00 | 0.00 | 0.00 | 25 | 1022.3 |
| 20260503171559 | 75 | 0 | 0.0 | 6.1 | 0.00 | 0.00 | 0.00 | 26 | 1022.3 |
| 20260503171058 | 75 | 73 | 0.9 | 6.1 | 0.00 | 0.00 | 0.00 | 24 | 1022.3 |
| 20260503170558 | 75 | 5 | 0.0 | 4.3 | 0.00 | 0.00 | 0.00 | 25 | 1022.5 |